Weather History for KOPM - January, 2013

Change the Weather History Date:

Thursday, January 10, 2013

  Actual Average Record
Temperature  
Mean Temperature 63 °F -  
Max Temperature 66 °F - - ()
Min Temperature 60 °F - - ()
Degree Days  
Heating Degree Days 2    
Growing Degree Days 13 (Base 50)    
Moisture  
Dew Point 54 °F    
Average Humidity 73    
Maximum Humidity 88    
Minimum Humidity 64    
Precipitation  
Precipitation 0.00 in - - ()
Sea Level Pressure  
Sea Level Pressure 30.06 in    
Wind  
Wind Speed 7 mph (North)    
Max Wind Speed 14 mph    
Max Gust Speed -    
Visibility 10 miles    
Events      
T = Trace of Precipitation, MM = Missing Value Source: NWS Daily Summary

Daily Weather History Graph

Daily Weather History Graph

Search for Another Location

Airport or City:

Trip Planner

Search our weather history database for the weather conditions in past years. The results will help you decide how hot, cold, wet, or windy it might be!

Date:

Astronomy

Jan. 10, 2013 Rise Set
Actual Time 7:18 AM CST 5:52 PM CST
Civil Twilight 6:53 AM CST 6:18 PM CST
Nautical Twilight 6:24 AM CST 6:46 PM CST
Astronomical Twilight 5:56 AM CST 7:14 PM CST
Moon 5:59 AM CST (1/10) 5:00 PM CST (1/10)
Length of Visible Light 11h 25m
Length of Day
10h 34m
Waning Crescent, 2% of the Moon is Illuminated
Jan 10
Waning Crescent
Jan 11
New
Jan 18
First Quarter
Jan 26
Full
Feb 3
Last Quarter

Hourly Weather History & Observations

Time (CST) Temp. Dew Point Humidity Pressure Visibility Wind Dir Wind Speed Gust Speed Precip Events Conditions
6:15 AM 60.8 °F 55.4 °F 82% 30.04 in 10.0 mi WNW 8.1 mph - N/A   Mostly Cloudy
6:35 AM 60.8 °F 55.4 °F 82% 30.04 in 10.0 mi WNW 10.4 mph - N/A   Scattered Clouds
6:55 AM 60.8 °F 55.4 °F 82% 30.04 in 10.0 mi WNW 4.6 mph - N/A   Partly Cloudy
7:15 AM 60.8 °F 55.4 °F 82% 30.05 in 10.0 mi West 4.6 mph - N/A   Clear
7:35 AM 60.8 °F 55.4 °F 82% 30.05 in 10.0 mi WNW 4.6 mph - N/A   Clear
7:55 AM 60.8 °F 55.4 °F 82% 30.05 in 10.0 mi WNW 4.6 mph - N/A   Clear
8:15 AM 60.8 °F 55.4 °F 82% 30.05 in 10.0 mi WNW 3.5 mph - N/A   Clear
8:35 AM 62.6 °F 55.4 °F 77% 30.05 in 10.0 mi West 4.6 mph - N/A   Clear
8:55 AM 62.6 °F 53.6 °F 72% 30.06 in 10.0 mi West 4.6 mph - N/A   Clear
9:15 AM 62.6 °F 53.6 °F 72% 30.07 in 10.0 mi WNW 6.9 mph - N/A   Partly Cloudy
9:35 AM 62.6 °F 55.4 °F 77% 30.09 in 10.0 mi NW 10.4 mph - N/A   Partly Cloudy
9:55 AM 62.6 °F 55.4 °F 77% 30.11 in 9.0 mi NW 5.8 mph - N/A   Scattered Clouds
10:15 AM 60.8 °F 57.2 °F 88% 30.12 in 7.0 mi Variable 4.6 mph - N/A   Overcast
10:35 AM 60.8 °F 57.2 °F 88% 30.12 in 8.0 mi NNW 6.9 mph - N/A   Overcast
10:55 AM 60.8 °F 57.2 °F 88% 30.12 in 7.0 mi NNW 5.8 mph - N/A   Overcast
11:15 AM 60.8 °F 57.2 °F 88% 30.12 in 8.0 mi NNW 5.8 mph - N/A   Overcast
11:35 AM 60.8 °F 57.2 °F 88% 30.11 in 9.0 mi NNW 5.8 mph - N/A   Overcast
11:55 AM 60.8 °F 57.2 °F 88% 30.10 in 8.0 mi NNW 6.9 mph - N/A   Mostly Cloudy
12:15 PM 62.6 °F 57.2 °F 82% 30.09 in 9.0 mi NW 4.6 mph - N/A   Mostly Cloudy
12:35 PM 64.4 °F 57.2 °F 77% 30.08 in 10.0 mi NNW 5.8 mph - N/A   Partly Cloudy
12:55 PM 62.6 °F 55.4 °F 77% 30.07 in 10.0 mi NNW 6.9 mph - N/A   Clear
1:15 PM 62.6 °F 55.4 °F 77% 30.06 in 10.0 mi NNW 4.6 mph - N/A   Clear
1:35 PM 62.6 °F 53.6 °F 72% 30.06 in 10.0 mi North 4.6 mph - N/A   Clear
1:55 PM 62.6 °F 51.8 °F 68% 30.05 in 10.0 mi North 4.6 mph - N/A   Clear
2:35 PM 62.6 °F 53.6 °F 72% 30.05 in 10.0 mi North 5.8 mph - N/A   Clear
2:55 PM 62.6 °F 53.6 °F 72% 30.04 in 10.0 mi North 5.8 mph - N/A   Clear
3:15 PM 62.6 °F 51.8 °F 68% 30.04 in 10.0 mi North 4.6 mph - N/A   Clear
3:35 PM 62.6 °F 51.8 °F 68% 30.04 in 10.0 mi North 5.8 mph - N/A   Clear
3:55 PM 64.4 °F 51.8 °F 64% 30.03 in 10.0 mi North 4.6 mph - N/A   Clear
4:15 PM 64.4 °F 51.8 °F 64% 30.04 in 10.0 mi NNE 4.6 mph - N/A   Clear
4:35 PM 64.4 °F 51.8 °F 64% 30.04 in 10.0 mi NNE 5.8 mph - N/A   Clear
4:55 PM 64.4 °F 51.8 °F 64% 30.04 in 10.0 mi NNE 5.8 mph - N/A   Clear
5:15 PM 64.4 °F 51.8 °F 64% 30.04 in 10.0 mi NNE 4.6 mph - N/A   Clear
5:35 PM 64.4 °F 51.8 °F 64% 30.04 in 10.0 mi NNE 8.1 mph - N/A   Clear
5:55 PM 64.4 °F 51.8 °F 64% 30.04 in 10.0 mi NE 10.4 mph - N/A   Clear
6:15 PM 64.4 °F 51.8 °F 64% 30.04 in 10.0 mi NE 9.2 mph - N/A   Clear
6:35 PM 64.4 °F 51.8 °F 64% 30.05 in 10.0 mi NNE 4.6 mph - N/A   Clear
6:55 PM 64.4 °F 51.8 °F 64% 30.05 in 10.0 mi North 4.6 mph - N/A   Clear
7:15 PM 64.4 °F 51.8 °F 64% 30.05 in 10.0 mi North 4.6 mph - N/A   Clear
7:35 PM 64.4 °F 51.8 °F 64% 30.06 in 10.0 mi NNE 4.6 mph - N/A   Clear
7:55 PM 64.4 °F 53.6 °F 68% 30.06 in 10.0 mi NE 5.8 mph - N/A   Clear
8:15 PM 64.4 °F 51.8 °F 64% 30.06 in 10.0 mi NE 6.9 mph - N/A   Clear
8:35 PM 64.4 °F 53.6 °F 68% 30.06 in 10.0 mi ENE 8.1 mph - N/A   Clear
8:55 PM 66.2 °F 53.6 °F 64% 30.07 in 10.0 mi East 6.9 mph - N/A   Clear
9:15 PM 66.2 °F 55.4 °F 68% 30.07 in 10.0 mi East 6.9 mph - N/A   Clear
9:35 PM 66.2 °F 55.4 °F 68% 30.07 in 10.0 mi East 10.4 mph - N/A   Clear
9:55 PM 66.2 °F 55.4 °F 68% 30.07 in 10.0 mi East 10.4 mph - N/A   Clear
10:35 PM 66.2 °F 55.4 °F 68% 30.07 in 10.0 mi East 10.4 mph - N/A   Clear
10:55 PM 66.2 °F 55.4 °F 68% 30.06 in 10.0 mi ESE 11.5 mph - N/A   Clear
11:35 PM 66.2 °F 57.2 °F 73% 30.06 in 10.0 mi ESE 13.8 mph - N/A   Clear
11:55 PM 66.2 °F 57.2 °F 73% 30.06 in 10.0 mi ESE 13.8 mph - N/A   Clear